軌道要素
Epoch 2023 Feb. 25.0 TT = JDT 2460000.5
T 2021 Aug. 19.86070 TT Rudenko
q 3.0031591 (2000.0) P Q
z -0.0001362 Peri. 126.31092 -0.59276563 -0.79357326
+/-0.0000007 Node 352.09176 -0.28642990 +0.36714093
e 1.0004089 Incl. 93.22157 +0.75271962 -0.48523090
>From 1633 observations 2019 Aug. 10-2023 Feb. 27, mean residual 0".5.
|